ONEWEB-0360 (49286 NORAD) Tracking and Keplerian Element Data

This shows tracking and keplerian element data for the satellite.

Feedback or suggestion? Click here.




ElementValue
Catalog49286
NameONEWEB-0360
Epoch Orbit355
Epoch Day339.91667824
Epoch Year2021
RAAN275.0045
Inclination87.2052
Eccentricity0.0009033
Argument of Perigee84.738
Mean Anonmoly142.9747
Mean Motion14.91016265
Decay Rate-0.00054323
L11 49286U 21090H 21339.91667824 -.00054323 00000+0 -55437-2 0 9996
L22 49286 87.2052 275.0045 0009033 84.7380 142.9747 14.91016265 3555

Live tracking and technical data element details for ONEWEB-0360 (NORAD 49286). ONEWEB-0360 can be tracked NOW for your location showing map with azimuth and elevation plus other details from your city location.

Track the satellite on the map from your city or location and see movement details for azimuth, elevation, latitude, longitude, range, height, and movement on the map or in text.







IsCatalogInMostPopularTable: catalog: 49286, numindb: 2
Update: records affected: 1



GetName: 49286 ONEWEB-0360

Hit Count: updated at: Mon, 06 Dec 2021 15:47:55 GMT